User: anonymous   Login
Location: Godiavel Galaoual
(15.2485°N, 12.6604°W)
Time: 01:15:24
(UTC+00:00)
Language:

POLYITAN 1 - Orbit

View from above orbital plane
View from above orbital plane
View from above satellite
View from above satellite

Ground track
Ground track

The orbit data is extracted from the following two-line orbital elements,

1 40042U 14033AJ  21216.44295268  .00000459  00000-0  54343-4 0  9994
2 40042  97.9421 148.1078 0015149  17.8261 342.3484 14.89307923386458
Epoch (UTC): 04 August 2021 10:37:51
Eccentricity: 0.0015149
inclination: 97.9421°
perigee height: 589 km
apogee height: 610 km
right ascension of ascending node: 148.1078°
argument of perigee: 17.8261°
revolutions per day: 14.89307923
mean anomaly at epoch: 342.3484°
orbit number at epoch: 38645

The dashed part of the orbit path shows where the satellite is in the earth's shadow,  

DLR